Regional Weather Roundup
Issued by NWS Jackson, KY

Home | Current Version | Previous Version | Graphics & Text | Print | Product List | Glossary On
Versions: 1 2 3 4 5 6 7 8 9 10 11 12 13 14 15 16 17 18 19 20 21 22 23 24 25 26 27 28 29 30 31 32 33 34 35 36 37 38 39 40 41 42 43 44 45 46 47 48 49 50
000
ASUS43 KJKL 312310
RWRJKL

EAST KENTUCKY HOURLY WEATHER ROUNDUP
NATIONAL WEATHER SERVICE JACKSON KY
700 PM EDT MON AUG 31 2015

NOTE: "FAIR" INDICATES FEW OR NO CLOUDS BELOW 12,000 FEET WITH
NO SIGNIFICANT WEATHER AND/OR OBSTRUCTIONS TO VISIBILITY.

* THESE REPORTS ARE NOT UNDER NWS QUALITY CONTROL AND MAY NOT
  REPORT WEATHER SUCH AS PRECIPITATION AND FOG.

KYZ079-080-083-085-087-088-110-112-115-119-120-010000
...EASTERN KENTUCKY...

CITY           SKY/WX    TMP DP  RH WIND       PRES   REMARKS
JACKSON        SUNNY     82  63  52 NW3       30.11S
LONDON         MOSUNNY   82  61  48 NE3       30.10S
SOMERSET*      MOSUNNY   81  64  57 CALM      30.10S
MONTICELLO*    MOSUNNY   85  67  54 CALM      30.12S
MIDDLESBORO*   MOSUNNY   82  67  59 CALM      30.10S
HARLAN APT*      N/A     81  63  54 MISG      30.12R
HAZARD APT*    CLEAR     82  64  54 CALM      30.11R
BLACK MTN*       N/A     66  61  82 NW1         N/A
PIKEVILLE APT* SUNNY     77  68  73 CALM      30.11S
BIG SANDY*     CLEAR     83  64  52 CALM      30.10S
MOREHEAD APT*  PTCLDY    82  66  57 CALM      30.11S
$$

KYZ035-036-041-042-044-050-067-078-099-010000
...CENTRAL KENTUCKY...

CITY           SKY/WX    TMP DP  RH WIND       PRES   REMARKS
MT STERLING*   SUNNY     82  68  61 CALM      30.11R
FLEMING/MASON* SUNNY     82  66  57 CALM      30.10S
DANVILLE*      SUNNY     82  59  44 CALM      30.10S
RICHMOND*      SUNNY     84  61  45 NW3       30.09S
LEXINGTON      MOSUNNY   84  63  49 NW5       30.09S
FRANKFORT      MOSUNNY   84  61  45 W6        30.08S
$$

KYZ091>093-OHZ055-061-077-WVZ005-015-034-035-042-010000
...SOUTHERN OHIO/WEST VIRGINIA...

CITY           SKY/WX    TMP DP  RH WIND       PRES   REMARKS
COVINGTON      MOSUNNY   84  65  52 SW7       30.07S
COLUMBUS       PTSUNNY   82  67  60 VRB7      30.06R THUNDER
DAYTON         PTSUNNY   76  72  87 SW6       30.09R
WILMINGTON     SUNNY     81  67  62 S6        30.08R
HUNTINGTON     MOSUNNY   78  68  71 SW5       30.08S
CHARLESTON     MOSUNNY   86  62  44 NW3       30.07S
PINEVILLE*     CLOUDY    74  72  93 MISG      30.18S
BECKLEY        MOSUNNY   74  62  66 CALM      30.17S
BLUEFIELD      MOSUNNY   78  60  53 N5        30.19S
$$

VAZ002-007-008-TNZ017-027-036-066-071-010000
...SOUTHWEST VIRGINIA/EAST TENNESSEE...

CITY           SKY/WX    TMP DP  RH WIND       PRES   REMARKS
WISE*          SUNNY     75  61  60 N5        30.19S
JONESVILLE*    PTCLDY    82  64  54 SW5       30.12S
ABINGDON*      SUNNY     81  58  45 CALM      30.14S
BRISTOL        MOSUNNY   83  63  50 CALM      30.10S
KNOXVILLE      MOSUNNY   84  61  45 NE5       30.07S
OAK RIDGE      SUNNY     85  63  47 VRB3      30.09S
CROSSVILLE     MOSUNNY   78  65  63 CALM      30.15R
NASHVILLE      MOSUNNY   87  60  40 E5        30.08S
$$

...KEY TO REMARKS...
VSB - VISIBILITY IN MILES
WCI - WIND CHILL INDEX
HX  - HEAT INDEX

$$



USA.gov is the U.S. government's official web portal to all federal, state and local government web resources and services.